Simultaneous Nadir Overpasses (SNOs) Predictions

Prediction of SNOs between GOES-16 and METOP-B Satellite Orbit:

Table of predicted SNOs for the next 14.0 days since TLE Epoch: 7/2/2022
Index Date Time (GOES-16) GOES-16 Lat,Lon METOP-B Lat,Lon Distance(km) Time Diff (sec)
1 07/03/2022 02:25:33 -0.01, -75.20 0.37, -73.59 184.11 80
2 07/04/2022 14:41:44 0.00, -75.23 0.66, -78.15 333.45 80
3 07/05/2022 14:23:45 0.00, -75.24 -0.45, -73.16 236.64 80
4 07/07/2022 02:40:05 -0.00, -75.24 -0.58, -77.75 286.74 80
5 07/08/2022 02:22:05 -0.01, -75.25 0.53, -72.76 283.75 80
6 07/09/2022 14:38:18 0.01, -75.28 0.44, -77.33 232.74 80
7 07/10/2022 14:17:38 0.02, -75.29 -0.67, -72.33 337.71 80
8 07/12/2022 02:39:19 -0.01, -75.30 -0.35, -76.93 185.61 80
9 07/13/2022 02:15:59 -0.01, -75.31 0.77, -71.94 384.71 80
10 07/14/2022 14:37:30 0.01, -75.34 0.27, -76.50 131.68 80
11 07/15/2022 14:14:11 0.00, -75.36 -0.84, -71.50 439.14 80
